Skip Page Navigation
NASA JPL Caltech
NASA Logo - Jet Propulsion Laboratory + View the NASA Portal
+ Center for Near-Earth Object Studies
JPL Home Earth Solar System Stars & Galaxies Technology
JPL Solar System Dynamics
BODIES ORBITS EPHEMERIDES TOOLS PHYSICAL DATA DISCOVERY FAQ SITE MAP
JPL Small-Body Database Browser
Search: [ help ]  
160209 (2002 CA96)
Classification: Main-belt Asteroid          SPK-ID: 2160209
Ephemeris | Orbit Diagram | Orbital Elements | Mission Design | Physical Parameters | Discovery Circumstances | Close-Approach Data ]

[ show orbit diagram ]
Orbital Elements at Epoch 2459200.5 (2020-Dec-17.0) TDB
Reference: JPL 18 (heliocentric ecliptic J2000)
 Element Value Uncertainty (1-sigma)   Units 
e .07165027022370249 5.9246e-08  
a 3.070152815644559 2.2288e-08 au
q 2.850175536775565 1.7575e-07 au
i 10.84622441805914 5.8513e-06 deg
node 149.5003507819117 2.227e-05 deg
peri 353.0300520815524 3.8451e-05 deg
M 190.4216869298251 3.3646e-05 deg
tp 2460126.063513575380
(2023-Jun-30.56351358)
0.00018854 TDB
period 1964.890786177657
5.38
2.1397e-05
5.858e-08
d
yr
n .1832162899497918 1.9951e-09 deg/d
Q 3.290130094513553 2.3885e-08 au
  Orbit Determination Parameters
   # obs. used (total)      439  
   data-arc span      6829 days (18.70 yr)  
   first obs. used      2002-02-05  
   last obs. used      2020-10-17  
   planetary ephem.      DE431  
   SB-pert. ephem.      SB431-N16  
   condition code      0  
   norm. resid. RMS      .58973  
   source      ORB  
   producer      Otto Matic  
   solution date      2020-Nov-12 12:29:51  

Additional Information
 Earth MOID = 1.86265 au 
 Jupiter MOID = 1.7127 au 
 T_jup = 3.200 
[ show covariance matrix ]

Ephemeris | Orbit Diagram | Orbital Elements | Mission Design | Physical Parameters | Discovery Circumstances | Close-Approach Data ]

Physical Parameter Table
Parameter Symbol Value Units Sigma Reference Notes
absolute magnitude H 15.31   n/a E2021B55  
diameter diameter 4.279 km 0.668 urn:nasa:pds:neowise_diameters_albedos::2.0[mainbelt] (http://adsabs.harvard.edu/abs/2011ApJ...741...68M)  
geometric albedo albedo 0.096   0.029 urn:nasa:pds:neowise_diameters_albedos::2.0[mainbelt] (http://adsabs.harvard.edu/abs/2011ApJ...741...68M)  

160209 (2002 CA96)          Discovered 2002-Feb-07 by LINEAR at Socorro
Reference: 20070730/Numbers.arcLast Updated: 2007-08-06

[ show close-approach data ]
Ephemeris | Orbit Diagram | Orbital Elements | Mission Design | Physical Parameters | Discovery Circumstances | Close-Approach Data ]
ABOUT SSD CREDITS/AWARDS PRIVACY/COPYRIGHT GLOSSARY LINKS
FirstGov 2021-Apr-11 11:31 UT
(server date/time)  
NASA Home Page
Site Manager:   Ryan S. Park
Webmaster  Alan B. Chamberlin